Location: Ebenezer
(18.2167°N, 63.0667°W)
Time: 23:59:19
(UTC+00:00)

Cosmos 1939 Rocket - Pass Details

Date: 26 January 2020
Orbit: 534 x 583 km, 97.4° (Epoch: 24 February)

Event Time Altitude Azimuth Distance (km) Brightness Sun altitude
Rises 23:02:01 0° 163° (SSE) 2,674 6.3 -14.2°
Reaches altitude 10° 23:04:08 10° 160° (SSE) 1,789 5.4 -14.7°
Maximum altitude 23:07:57 65° 78° (ENE) 595 2.7 -15.6°
Drops below altitude 10° 23:11:50 10° 356° (N) 1,816 5.3 -16.5°
Sets 23:13:59 0° 353° (N) 2,719 6.3 -17.0°
